FW7740 Weather Reports


Display with metric or nautical units.
time (UTC)temp
F
wind
direction
speed
MPH
gust
MPH
rain 1hr
in
rain 24hr
in
rain mn
in
humidity
%
barometer
mb
20260506001454 46 50 3.0 2.0 0.00 0.17 0.17 92 1012.1
20260506000952 46 338 0.0 0.0 0.07 0.17 0.17 93 1012.1
20260506000449 46 5 2.0 2.0 0.12 0.17 0.17 92 1012.5
20260505235946 46 329 2.0 2.0 0.12 0.16 0.16 91 1012.1
20260505235444 46 334 1.0 1.0 0.07 0.15 0.15 91 1012.1
20260505234940 46 326 4.0 6.0 0.05 0.14 0.14 92 1011.8
20260505234438 46 321 1.0 1.0 0.05 0.14 0.14 92 1011.8
20260505233934 46 318 3.0 3.0 0.00 0.13 0.13 91 1011.8
20260505233432 46 358 1.0 2.0 0.00 0.13 0.13 91 1011.8
20260505232930 46 336 2.0 3.0 0.00 0.13 0.13 90 1012.1
20260505232427 46 26 3.0 5.0 0.00 0.13 0.13 91 1012.1
20260505231924 46 335 1.0 2.0 0.00 0.13 0.13 91 1012.1
20260505231422 46 331 1.0 1.0 0.00 0.13 0.13 92 1012.1
20260505230919 47 326 1.0 1.0 0.00 0.13 0.13 93 1012.1
20260505230417 47 341 2.0 2.0 0.00 0.13 0.13 93 1011.8
20260505225913 47 340 0.0 0.0 0.07 0.13 0.13 92 1012.1
20260505225411 47 342 3.0 3.0 0.07 0.13 0.13 92 1012.1
20260505224912 47 341 2.0 2.0 0.07 0.13 0.13 92 1012.1
20260505224409 47 346 2.0 3.0 0.05 0.12 0.12 92 1012.1
20260505223906 47 344 1.0 1.0 0.05 0.12 0.12 91 1012.1
20260505223403 47 344 3.0 3.0 0.00 0.11 0.11 91 1012.1
20260505222859 47 349 2.0 2.0 0.00 0.11 0.11 91 1011.8
20260505222355 47 14 0.0 1.0 0.00 0.11 0.11 92 1011.8
20260505221852 47 335 2.0 2.0 0.00 0.11 0.11 93 1012.1
20260505221349 47 3 2.0 2.0 0.00 0.11 0.11 92 1012.1
20260505220846 47 342 1.0 1.0 0.00 0.11 0.11 92 1012.1
20260505220343 47 342 1.0 1.0 0.07 0.11 0.11 92 1012.1
20260505215841 47 338 2.0 1.0 0.07 0.11 0.11 92 1011.8
20260505215339 47 333 2.0 2.0 0.00 0.10 0.10 91 1011.8
20260505214837 48 5 2.0 3.0 0.00 0.10 0.10 91 1011.8
20260505214334 47 348 0.0 0.0 0.00 0.10 0.10 91 1011.8
20260505213831 48 334 1.0 1.0 0.00 0.10 0.10 91 1011.8
20260505213329 48 327 2.0 3.0 0.00 0.10 0.10 90 1011.8
20260505212824 48 357 1.0 1.0 0.00 0.10 0.10 90 1011.8
20260505212322 48 356 1.0 1.0 0.05 0.10 0.10 89 1011.4
20260505211817 48 356 1.0 1.0 0.05 0.10 0.10 89 1011.8
20260505211316 48 335 0.0 1.0 0.00 0.09 0.09 89 1011.8
20260505210812 48 302 1.0 2.0 0.00 0.09 0.09 86 1011.8
20260505210309 49 322 3.0 3.0 0.00 0.09 0.09 86 1011.8
20260505205806 49 317 3.0 3.0 0.00 0.09 0.09 85 1011.8
20260505205305 49 353 1.0 1.0 0.00 0.09 0.09 84 1011.4
20260505204800 50 2 2.0 2.0 0.07 0.09 0.09 83 1011.4
20260505204258 50 349 3.0 5.0 0.24 0.09 0.09 82 1011.1
20260505203755 50 329 2.0 2.0 0.17 0.08 0.08 81 1011.4
20260505203252 50 311 2.0 2.0 0.00 0.05 0.05 78 1011.8
20260505202748 50 339 2.0 2.0 0.00 0.05 0.05 78 1011.4
20260505202244 50 11 1.0 1.0 0.00 0.05 0.05 78 1011.1
20260505201741 50 329 2.0 2.0 0.00 0.05 0.05 79 1011.1
20260505201238 51 333 3.0 6.0 0.00 0.05 0.05 78 1011.1
20260505200737 51 330 1.0 1.0 0.00 0.05 0.05 78 1011.1
20260505200234 51 324 3.0 5.0 0.00 0.05 0.05 77 1011.4
20260505195729 51 332 7.0 8.0 0.00 0.05 0.05 77 1011.8
20260505195227 51 109 3.0 3.0 0.00 0.05 0.05 75 1011.8
20260505194724 51 2 4.0 5.0 0.00 0.05 0.05 74 1011.4
20260505194220 51 58 3.0 5.0 0.00 0.05 0.05 75 1011.1
20260505193716 51 333 2.0 3.0 0.00 0.05 0.05 75 1011.1
20260505193213 51 1 4.0 5.0 0.00 0.05 0.05 75 1011.4
20260505192712 51 333 4.0 5.0 0.00 0.05 0.05 74 1011.4
20260505192209 51 336 6.0 8.0 0.00 0.05 0.05 73 1011.4
20260505191707 51 346 3.0 5.0 0.00 0.05 0.05 73 1011.8
20260505191205 51 36 3.0 3.0 0.00 0.05 0.05 73 1011.8
20260505190701 52 341 5.0 6.0 0.00 0.05 0.05 74 1011.4
20260505190201 52 17 6.0 7.0 0.00 0.05 0.05 72 1011.4
20260505185658 52 7 1.0 1.0 0.00 0.05 0.05 73 1011.4
20260505185154 52 341 1.0 1.0 0.00 0.05 0.05 73 1011.4
20260505184651 52 321 5.0 8.0 0.00 0.05 0.05 72 1011.4
20260505184148 52 337 4.0 5.0 0.00 0.05 0.05 75 1011.8
20260505183645 52 344 9.0 9.0 0.00 0.05 0.05 73 1011.8
20260505183142 52 316 2.0 2.0 0.00 0.05 0.05 72 1011.4
20260505182638 52 92 3.0 3.0 0.00 0.05 0.05 75 1011.4
20260505182136 52 336 2.0 2.0 0.00 0.05 0.05 76 1011.8
20260505181632 52 324 1.0 2.0 0.00 0.05 0.05 77 1011.8
20260505181129 52 354 0.0 1.0 0.00 0.05 0.05 78 1011.8
20260505180625 52 22 5.0 7.0 0.00 0.05 0.05 78 1011.8
20260505180123 51 340 2.0 2.0 0.00 0.05 0.05 81 1011.8
20260505175619 52 344 3.0 3.0 0.00 0.05 0.05 80 1011.8
20260505175115 52 47 3.0 5.0 0.00 0.05 0.05 81 1011.8
20260505174612 52 355 3.0 3.0 0.00 0.05 0.05 82 1011.8
20260505174108 51 340 1.0 1.0 0.00 0.05 0.05 83 1011.8
20260505173605 51 344 4.0 5.0 0.00 0.05 0.05 81 1011.8
20260505173102 52 337 2.0 2.0 0.00 0.05 0.05 82 1011.8
20260505172559 52 331 2.0 2.0 0.00 0.05 0.05 83 1011.8
20260505172056 52 306 5.0 7.0 0.00 0.05 0.05 82 1011.4
20260505171550 53 346 4.0 7.0 0.00 0.05 0.05 83 1011.1
20260505171048 53 351 2.0 2.0 0.00 0.05 0.05 83 1011.4
20260505170544 53 308 1.0 1.0 0.00 0.05 0.05 82 1010.8
20260505170041 53 343 3.0 3.0 0.00 0.05 0.05 84 1010.8
20260505165536 53 340 3.0 5.0 0.00 0.05 0.05 84 1011.1
20260505165032 53 0 3.0 5.0 0.00 0.05 0.05 83 1011.1
20260505164528 53 307 5.0 6.0 0.00 0.05 0.05 84 1011.1
20260505164026 52 316 1.0 1.0 0.00 0.05 0.05 85 1011.1
20260505163525 52 318 1.0 2.0 0.00 0.05 0.05 85 1011.1
20260505163021 52 353 3.0 3.0 0.14 0.05 0.05 84 1011.4
20260505162515 52 330 5.0 6.0 0.31 0.05 0.05 82 1011.4
20260505162012 53 332 3.0 2.0 0.17 0.03 0.03 81 1011.8
20260505161509 53 351 2.0 2.0 0.00 0.00 0.00 78 1011.8
20260505161006 53 347 1.0 1.0 0.00 0.00 0.00 75 1012.5
20260505160504 53 336 0.0 0.0 0.00 0.00 0.00 75 1012.1
20260505152939 54 345 3.0 3.0 0.00 0.00 0.00 73 1011.1
20260505152438 54 345 6.0 7.0 0.00 0.00 0.00 72 1011.1
20260505151937 55 355 4.0 5.0 0.00 0.00 0.00 71 1010.8
20260505151433 54 129 3.0 3.0 0.00 0.00 0.00 72 1010.8
20260505150931 55 59 5.0 7.0 0.00 0.00 0.00 70 1010.8
20260505150427 54 230 3.0 3.0 0.00 0.00 0.00 71 1010.4
20260505140357 53 60 3.0 3.0 0.00 0.00 0.00 76 1010.8
20260505124811 52 343 3.0 3.0 0.00 0.00 0.00 79 1009.6
20260505124308 52 344 7.0 9.0 0.00 0.00 0.00 78 1009.6
20260505123804 52 149 4.0 7.0 0.00 0.00 0.00 78 1009.6
20260505123301 53 327 3.0 5.0 0.00 0.00 0.00 78 1009.3
20260505122757 53 350 2.0 2.0 0.00 0.00 0.00 78 1009.3
20260505122255 53 8 3.0 5.0 0.00 0.00 0.00 77 1009.3
20260505121751 53 92 4.0 6.0 0.00 0.00 0.00 76 1009.3
20260505121247 53 20 6.0 7.0 0.00 0.00 0.00 75 1009.3
20260505120744 53 317 4.0 5.0 0.00 0.00 0.00 76 1009.6
20260505120240 53 340 2.0 3.0 0.00 0.00 0.00 76 1009.3
20260505115739 53 323 6.0 7.0 0.00 0.00 0.00 76 1009.3
20260505115236 53 353 5.0 6.0 0.00 0.00 0.00 76 1009.3
20260505114734 53 352 1.0 2.0 0.00 0.00 0.00 76 1009.6
20260505114230 53 297 3.0 3.0 0.00 0.00 0.00 76 1009.6
20260505113726 53 348 3.0 3.0 0.00 0.00 0.00 77 1009.3
20260505113223 53 353 3.0 3.0 0.00 0.00 0.00 76 1008.6
20260505112719 53 305 1.0 2.0 0.00 0.00 0.00 77 1008.6
20260505112217 53 354 1.0 1.0 0.00 0.00 0.00 76 1008.6
20260505111717 53 336 0.0 0.0 0.00 0.00 0.00 76 1009.0
20260505111213 53 340 1.0 1.0 0.00 0.00 0.00 76 1009.0
20260505110709 53 291 3.0 2.0 0.00 0.00 0.00 76 1009.0
20260505110207 53 332 7.0 8.0 0.00 0.00 0.00 76 1009.0
20260505102142 56 303 5.0 10.0 0.00 0.00 0.00 75 1009.3
20260505101641 57 349 9.0 10.0 0.00 0.00 0.00 74 1009.3
20260505101137 58 333 10.0 13.0 0.00 0.00 0.00 73 1009.0
20260505100633 61 347 5.0 8.0 0.00 0.00 0.00 69 1009.0
20260505100130 64 47 5.0 6.0 0.00 0.00 0.00 67 1008.6
20260505095626 65 4 7.0 9.0 0.00 0.00 0.00 69 1008.3
20260505095123 66 307 2.0 2.0 0.00 0.00 0.00 71 1008.0
20260505094619 66 18 1.0 1.0 0.00 0.00 0.00 72 1008.0
20260505094116 65 7 5.0 6.0 0.00 0.00 0.00 74 1007.6
20260505093612 65 352 0.0 0.0 0.00 0.00 0.00 74 1007.3
20260505093109 64 353 0.0 0.0 0.00 0.00 0.00 76 1007.3
20260505092607 63 352 0.0 0.0 0.00 0.00 0.00 78 1007.3
20260505092106 63 353 0.0 0.0 0.00 0.00 0.00 78 1006.9
20260505091602 64 353 0.0 0.0 0.00 0.00 0.00 78 1006.3
20260505091100 64 353 0.0 0.0 0.00 0.00 0.00 77 1005.9
20260505090557 64 353 0.0 0.0 0.00 0.00 0.00 76 1005.5
20260505090055 64 353 0.0 0.0 0.00 0.00 0.00 76 1005.5
20260505085553 64 353 0.0 0.0 0.00 0.00 0.00 76 1005.5
20260505085051 63 353 0.0 0.0 0.00 0.00 0.00 76 1005.5
20260505084549 63 83 0.0 0.0 0.00 0.00 0.00 78 1005.1
20260505084047 62 272 0.0 0.0 0.00 0.00 0.00 81 1004.8
20260505083543 62 272 0.0 0.0 0.00 0.00 0.00 82 1005.1
20260505083040 62 272 0.0 0.0 0.00 0.00 0.00 83 1005.1
20260505082536 62 272 0.0 0.0 0.00 0.00 0.00 83 1005.5
20260505082033 62 272 0.0 0.0 0.00 0.00 0.00 83 1005.5
20260505081529 61 272 0.0 0.0 0.00 0.00 0.00 83 1005.5
20260505081026 61 272 0.0 0.0 0.00 0.00 0.00 83 1005.5
20260505080522 61 272 0.0 0.0 0.00 0.00 0.00 83 1005.9
20260505080019 62 272 0.0 0.0 0.00 0.00 0.00 83 1005.5
20260505075515 62 272 0.0 0.0 0.00 0.00 0.00 83 1005.9
20260505075012 62 272 0.0 0.0 0.00 0.00 0.00 82 1005.9
20260505074510 62 272 0.0 0.0 0.00 0.00 0.00 83 1006.3
20260505074007 62 272 0.0 0.0 0.00 0.00 0.00 83 1006.3
20260505073504 62 272 0.0 0.0 0.00 0.00 0.00 82 1006.3
20260505073002 62 272 0.0 0.0 0.00 0.00 0.00 82 1006.3
20260505072457 62 272 0.0 0.0 0.00 0.00 0.00 81 1006.6
20260505071953 62 272 0.0 0.0 0.00 0.00 0.00 81 1006.6
20260505071449 62 272 0.0 0.0 0.00 0.00 0.00 80 1006.9
20260505070948 62 272 0.0 0.0 0.00 0.00 0.00 81 1006.6
20260505070444 62 273 0.0 0.0 0.00 0.00 0.00 81 1006.9
20260505065940 62 273 0.0 0.0 0.00 0.00 0.00 81 1006.9
20260505065437 62 273 0.0 0.0 0.00 0.00 0.00 81 1007.3
20260505064933 62 273 0.0 0.0 0.00 0.00 0.00 81 1006.9
20260505064430 62 273 0.0 0.0 0.00 0.00 0.00 81 1006.9
20260505063929 62 273 0.0 0.0 0.00 0.00 0.00 79 1006.9
20260505063425 62 273 0.0 0.0 0.00 0.00 0.00 78 1006.9
20260505062921 62 273 0.0 0.0 0.00 0.00 0.00 78 1006.6
20260505062419 63 273 0.0 0.0 0.00 0.00 0.00 77 1006.3
20260505061915 62 273 0.0 0.0 0.00 0.00 0.00 78 1006.3
20260505061414 62 273 0.0 0.0 0.00 0.00 0.00 77 1006.3
20260505060911 62 273 0.0 0.0 0.00 0.00 0.00 79 1006.3
20260505060408 61 273 0.0 0.0 0.00 0.00 0.00 80 1005.9
20260505055904 61 273 0.0 0.0 0.00 0.00 0.00 82 1005.9
20260505055400 60 273 0.0 0.0 0.00 0.00 0.00 83 1005.9
20260505054857 60 273 0.0 0.0 0.00 0.00 0.00 83 1005.9
20260505054354 60 273 0.0 0.0 0.00 0.00 0.00 83 1006.3
20260505053852 60 273 0.0 0.0 0.00 0.00 0.00 84 1006.6
20260505053349 60 273 0.0 0.0 0.00 0.00 0.00 83 1006.3
20260505052846 61 273 0.0 0.0 0.00 0.00 0.00 83 1006.3
20260505052343 61 273 0.0 0.0 0.00 0.00 0.00 81 1005.9
20260505051840 62 273 0.0 0.0 0.00 0.00 0.00 80 1006.3
20260505051337 62 273 0.0 0.0 0.00 0.00 0.00 79 1006.3
20260505050835 62 273 0.0 0.0 0.00 0.00 0.00 79 1006.6
20260505050334 62 273 0.0 0.0 0.00 0.00 0.00 78 1006.6
20260505041300 68 273 1.0 1.0 0.00 0.00 0.00 64 1006.9
20260505040758 69 273 0.0 0.0 0.00 0.00 0.00 63 1006.9
20260505040255 69 272 0.0 0.0 0.00 0.00 0.00 63 1006.9
20260505035752 70 276 1.0 2.0 0.00 0.00 0.00 62 1006.6
20260505035247 70 300 0.0 0.0 0.00 0.00 0.00 59 1006.9
20260505034745 70 332 0.0 0.0 0.00 0.00 0.00 59 1006.6
20260505034241 70 323 1.0 1.0 0.00 0.00 0.00 58 1006.9
20260505033738 70 323 0.0 0.0 0.00 0.00 0.00 58 1006.9
20260505033236 70 334 1.0 1.0 0.00 0.00 0.00 60 1006.9
20260505032734 70 328 0.0 0.0 0.00 0.00 0.00 60 1006.9
20260505032229 69 295 1.0 1.0 0.00 0.00 0.00 59 1006.9
20260505031727 68 22 1.0 2.0 0.00 0.00 0.00 63 1006.6
20260505031223 67 330 0.0 0.0 0.00 0.00 0.00 66 1006.9
20260505030720 67 307 0.0 0.0 0.00 0.00 0.00 71 1006.9
20260505030216 67 307 0.0 0.0 0.00 0.00 0.00 72 1006.9
20260505025712 67 310 0.0 0.0 0.00 0.00 0.00 71 1006.9
20260505025211 67 310 0.0 0.0 0.00 0.00 0.00 71 1006.9
20260505024708 67 310 0.0 0.0 0.00 0.00 0.00 71 1006.9
20260505024205 67 310 0.0 0.0 0.00 0.00 0.00 71 1006.6
20260505023703 67 310 0.0 0.0 0.00 0.00 0.00 71 1006.9
20260505023200 67 310 0.0 0.0 0.00 0.00 0.00 70 1006.6
20260505022658 67 310 0.0 0.0 0.00 0.00 0.00 70 1006.3
20260505022154 67 310 0.0 0.0 0.00 0.00 0.00 70 1006.3
20260505021651 67 310 0.0 0.0 0.00 0.00 0.00 70 1006.3
20260505021148 67 310 0.0 0.0 0.00 0.00 0.00 70 1006.3
20260505020643 67 310 0.0 0.0 0.00 0.00 0.00 70 1006.3
20260505020139 67 310 0.0 0.0 0.00 0.00 0.00 69 1005.9
20260505015637 68 310 0.0 0.0 0.00 0.00 0.00 68 1005.9
20260505015133 68 310 0.0 0.0 0.00 0.00 0.00 67 1005.5
20260505014630 68 310 0.0 0.0 0.00 0.00 0.00 66 1005.9
20260505014127 68 310 0.0 0.0 0.00 0.00 0.00 67 1005.5
20260505013625 69 313 0.0 0.0 0.00 0.00 0.00 66 1005.1
20260505013121 69 321 0.0 0.0 0.00 0.00 0.00 65 1005.5
20260505012615 69 321 0.0 0.0 0.00 0.00 0.00 64 1005.5
20260505012111 70 321 0.0 0.0 0.00 0.00 0.00 62 1005.5
20260505011607 71 321 0.0 0.0 0.00 0.00 0.00 62 1005.1
20260505011104 71 321 0.0 0.0 0.00 0.00 0.00 61 1005.5
20260505010559 72 321 0.0 0.0 0.00 0.00 0.00 57 1005.1
20260505010056 73 322 0.0 0.0 0.00 0.00 0.00 56 1005.1
20260505005552 74 322 0.0 0.0 0.00 0.00 0.00 53 1004.8
20260505005050 74 322 0.0 0.0 0.00 0.00 0.00 52 1004.8
20260505004546 75 322 0.0 0.0 0.00 0.00 0.00 50 1004.8
20260505004043 76 325 0.0 0.0 0.00 0.00 0.00 50 1004.8
20260505003541 76 347 0.0 1.0 0.00 0.00 0.00 48 1004.8
20260505003038 76 305 0.0 0.0 0.00 0.00 0.00 49 1004.8
20260505002537 77 303 0.0 0.0 0.00 0.00 0.00 49 1004.8
20260505002032 77 86 5.0 6.0 0.00 0.00 0.00 46 1004.8